Regional Weather Roundup
Issued by NWS

Home | Current Version | Previous Version | Graphics & Text | Print | Product List | Glossary On
Versions: 1 2 3 4 5 6 7 8 9 10 11 12 13 14 15 16 17 18 19 20 21 22 23 24 25 26 27 28 29 30 31 32 33 34 35 36 37 38 39 40 41 42 43 44 45 46 47 48 49 50
000
ASUS43 KBIS 201110
RWRND

NORTH DAKOTA REGIONAL WEATHER ROUNDUP
NATIONAL WEATHER SERVICE BISMARCK ND
600 AM CDT THU JUL 20 2017

NOTE: "FAIR" INDICATES FEW OR NO CLOUDS BELOW 12,000 FEET WITH NO
SIGNIFICANT WEATHER AND/OR OBSTRUCTIONS TO VISIBILITY.


NDZ001>003-009>011-017-201200-
NORTHWEST NORTH DAKOTA

CITY           SKY/WX    TMP DP  RH WIND       PRES   REMARKS
WILLISTON        N/A    N/A N/A N/A MISG      29.95S
MINOT          CLEAR     58  56  93 N3        30.00S
MINOT AFB      PTCLDY    62  58  85 N5        29.99F
$$

NDZ018>021-031>035-040>046-201200-
SOUTHWEST NORTH DAKOTA

CITY           SKY/WX    TMP DP  RH WIND       PRES   REMARKS
BISMARCK       MOCLDY    62  60  93 E3        30.02R
DICKINSON      CLOUDY    66  59  78 S13       29.99S
GARRISON         N/A     60  59  96 SE6       30.00R
HETTINGER ARPT CLOUDY    64  59  83 CALM      30.05S
$$

NDZ004>008-012>016-024-026-027-054-201200-
NORTHEAST NORTH DAKOTA

CITY           SKY/WX    TMP DP  RH WIND       PRES   REMARKS
GRAND FORKS    PTCLDY    58  58 100 NW8       29.97R
GRND FRKS AFB  PTCLDY    59  58  96 NW6       29.99R
DEVILS LAKE    CLEAR     61  61 100 NE6       30.01R FOG
$$

NDZ022-023-025-028>030-036>039-047>053-201200-
SOUTHEAST NORTH DAKOTA

CITY           SKY/WX    TMP DP  RH WIND       PRES   REMARKS
FARGO          MOCLDY    61  60  97 NW3       29.98R
JAMESTOWN      CLOUDY    61  59  93 NE3       30.00S
$$





USA.gov is the U.S. government's official web portal to all federal, state and local government web resources and services.